TimeEST,TemperatureF,Dew PointF,Humidity,Sea Level PressureIn,VisibilityMPH,Wind Direction,Wind SpeedMPH,Gust SpeedMPH,PrecipitationIn,Events,Conditions,WindDirDegrees,DateUTC
12:01 AM,32.0,30.2,93,29.93,1.8,West,6.9,-,0.00,Rain,Light Freezing Rain,260,2013-03-01 05:01:00
12:19 AM,32.0,30.2,93,29.92,1.0,Calm,Calm,-,N/A,Rain,Light Freezing Rain,0,2013-03-01 05:19:00
12:25 AM,32.0,30.2,93,29.92,0.8,Calm,Calm,-,0.00,Snow,Light Snow,0,2013-03-01 05:25:00
12:36 AM,32.0,30.2,93,29.92,1.2,Calm,Calm,-,0.00,,Overcast,0,2013-03-01 05:36:00
12:53 AM,32.0,30.9,96,29.95,1.2,Calm,Calm,-,0.01,,Overcast,0,2013-03-01 05:53:00
1:14 AM,32.0,30.2,93,29.92,0.8,WSW,3.5,-,N/A,,Mist,240,2013-03-01 06:14:00
1:36 AM,32.0,30.2,93,29.92,1.0,WSW,3.5,-,N/A,,Mist,240,2013-03-01 06:36:00
1:49 AM,32.0,30.2,93,29.92,0.8,Calm,Calm,-,N/A,,Mist,0,2013-03-01 06:49:00
1:53 AM,32.0,30.9,96,29.95,0.8,Variable,3.5,-,N/A,,Mist,0,2013-03-01 06:53:00
2:36 AM,32.0,30.2,93,29.90,1.0,Variable,5.8,-,N/A,,Mist,0,2013-03-01 07:36:00
2:53 AM,32.0,30.9,96,29.93,1.5,WNW,5.8,-,N/A,,Overcast,290,2013-03-01 07:53:00
3:35 AM,32.0,30.2,93,29.90,2.0,West,3.5,-,N/A,,Overcast,270,2013-03-01 08:35:00
3:53 AM,32.0,30.9,96,29.93,3.0,Calm,Calm,-,N/A,,Overcast,0,2013-03-01 08:53:00
4:04 AM,32.0,30.2,93,29.90,2.0,Calm,Calm,-,N/A,,Overcast,0,2013-03-01 09:04:00
4:18 AM,32.0,30.2,93,29.89,1.5,West,3.5,-,N/A,,Overcast,270,2013-03-01 09:18:00
4:53 AM,32.0,30.9,96,29.93,0.8,WSW,3.5,-,N/A,,Mist,250,2013-03-01 09:53:00
5:11 AM,32.0,30.2,93,29.90,1.0,West,4.6,-,N/A,,Mist,260,2013-03-01 10:11:00
5:20 AM,32.0,30.2,93,29.90,0.8,WSW,3.5,-,N/A,,Mist,250,2013-03-01 10:20:00
5:34 AM,32.0,30.2,93,29.91,1.8,Variable,4.6,-,N/A,,Overcast,0,2013-03-01 10:34:00
5:41 AM,32.0,30.2,93,29.91,2.5,WSW,4.6,-,N/A,,Overcast,250,2013-03-01 10:41:00
5:53 AM,32.0,30.9,96,29.94,2.5,WSW,3.5,-,N/A,,Overcast,250,2013-03-01 10:53:00
5:56 AM,32.0,30.2,93,29.91,1.5,West,3.5,-,N/A,,Overcast,260,2013-03-01 10:56:00
6:09 AM,32.0,30.2,93,29.92,2.5,West,4.6,-,N/A,,Overcast,260,2013-03-01 11:09:00
6:31 AM,32.0,30.2,93,29.92,4.0,West,3.5,-,N/A,,Overcast,260,2013-03-01 11:31:00
6:53 AM,32.0,30.9,96,29.94,5.0,Calm,Calm,-,N/A,,Overcast,0,2013-03-01 11:53:00
7:53 AM,33.1,32.0,96,29.95,2.5,Calm,Calm,-,0.00,,Overcast,0,2013-03-01 12:53:00
8:06 AM,33.8,30.2,87,29.93,1.8,Calm,Calm,-,0.00,,Overcast,0,2013-03-01 13:06:00
8:13 AM,32.0,30.2,93,29.93,0.8,Calm,Calm,-,0.00,Snow,Light Snow,0,2013-03-01 13:13:00
8:27 AM,32.0,30.2,93,29.93,1.0,Calm,Calm,-,0.00,Snow,Light Snow,0,2013-03-01 13:27:00
8:46 AM,33.8,30.2,87,29.94,2.0,Calm,Calm,-,0.01,,Overcast,0,2013-03-01 13:46:00
8:53 AM,33.1,30.9,92,29.97,1.8,Calm,Calm,-,0.01,,Overcast,0,2013-03-01 13:53:00
8:58 AM,32.0,30.2,93,29.94,0.8,Calm,Calm,-,0.00,Snow,Light Snow,0,2013-03-01 13:58:00
9:18 AM,33.8,30.2,87,29.94,1.0,Calm,Calm,-,0.01,Snow,Light Snow,0,2013-03-01 14:18:00
9:53 AM,34.0,32.0,92,29.96,1.5,Calm,Calm,-,0.02,Snow,Light Snow,0,2013-03-01 14:53:00
9:59 AM,33.8,32.0,93,29.94,2.0,WNW,3.5,-,0.00,Snow,Light Snow,300,2013-03-01 14:59:00
10:05 AM,33.8,32.0,93,29.94,1.5,Calm,Calm,-,0.00,Snow,Light Snow,0,2013-03-01 15:05:00
10:22 AM,33.8,30.2,87,29.94,2.0,Variable,3.5,-,0.01,Snow,Light Snow,0,2013-03-01 15:22:00
10:25 AM,33.8,30.2,87,29.94,4.0,NW,4.6,-,0.01,Snow,Light Snow,310,2013-03-01 15:25:00
10:53 AM,35.1,32.0,89,29.97,8.0,NW,4.6,-,0.01,,Overcast,310,2013-03-01 15:53:00
11:07 AM,35.6,33.8,93,29.94,10.0,WNW,3.5,-,0.00,,Overcast,290,2013-03-01 16:07:00
11:51 AM,35.6,32.0,87,29.95,2.0,NE,3.5,-,0.00,Snow,Light Snow,40,2013-03-01 16:51:00
11:53 AM,34.0,32.0,92,29.97,1.2,NNE,4.6,-,0.01,Snow,Light Snow,20,2013-03-01 16:53:00
12:02 PM,33.8,30.2,87,29.95,0.8,Calm,Calm,-,0.05,Snow,Light Snow,0,2013-03-01 17:02:00
12:53 PM,33.1,30.9,92,29.97,0.2,Calm,Calm,-,0.10,Fog-Snow,Snow,0,2013-03-01 17:53:00
1:04 PM,33.8,30.2,87,29.94,0.2,Calm,Calm,-,0.02,Fog-Snow,Snow,0,2013-03-01 18:04:00
1:34 PM,33.8,32.0,93,29.93,0.5,Calm,Calm,-,0.05,Fog-Snow,Light Snow,0,2013-03-01 18:34:00
1:48 PM,33.8,32.0,93,29.93,0.2,Calm,Calm,-,0.06,Fog-Snow,Snow,0,2013-03-01 18:48:00
1:53 PM,32.0,30.9,96,29.96,0.2,Calm,Calm,-,0.06,Fog-Snow,Snow,0,2013-03-01 18:53:00
2:06 PM,33.8,32.0,93,29.92,0.8,Calm,Calm,-,0.01,Snow,Light Snow,0,2013-03-01 19:06:00
2:12 PM,33.8,32.0,93,29.92,1.8,Calm,Calm,-,0.01,Snow,Light Snow,0,2013-03-01 19:12:00
2:16 PM,33.8,32.0,93,29.92,3.0,Calm,Calm,-,0.01,Snow,Light Snow,0,2013-03-01 19:16:00
2:33 PM,35.6,33.8,93,29.92,6.0,Calm,Calm,-,0.01,,Overcast,0,2013-03-01 19:33:00
2:50 PM,35.6,33.8,93,29.92,10.0,Calm,Calm,-,0.01,,Overcast,0,2013-03-01 19:50:00
2:53 PM,36.0,33.1,89,29.94,10.0,Calm,Calm,-,0.01,,Overcast,0,2013-03-01 19:53:00
3:02 PM,35.6,33.8,93,29.91,7.0,WNW,4.6,-,0.00,Rain,Light Rain,300,2013-03-01 20:02:00
3:07 PM,33.8,30.2,87,29.92,2.0,NW,3.5,-,N/A,Snow,Light Snow,310,2013-03-01 20:07:00
3:09 PM,33.8,30.2,87,29.92,1.2,NNW,3.5,-,0.00,Snow,Light Snow,330,2013-03-01 20:09:00
3:26 PM,33.8,33.8,100,29.92,1.8,Variable,3.5,-,0.02,Snow,Light Snow,0,2013-03-01 20:26:00
3:30 PM,33.8,33.8,100,29.92,3.0,Calm,Calm,-,0.02,Snow,Light Snow,0,2013-03-01 20:30:00
3:50 PM,35.6,33.8,93,29.92,8.0,Calm,Calm,-,0.02,,Overcast,0,2013-03-01 20:50:00
3:53 PM,34.0,32.0,92,29.94,7.0,Calm,Calm,-,0.02,Snow,Light Snow,0,2013-03-01 20:53:00
4:12 PM,33.8,32.0,93,29.92,1.8,Calm,Calm,-,0.01,Snow,Light Snow,0,2013-03-01 21:12:00
4:19 PM,33.8,30.2,87,29.92,1.0,Calm,Calm,-,0.02,Snow,Light Snow,0,2013-03-01 21:19:00
4:34 PM,33.8,30.2,87,29.92,0.2,Calm,Calm,-,0.04,Fog-Snow,Light Snow,0,2013-03-01 21:34:00
4:51 PM,32.0,30.2,93,29.92,1.0,Calm,Calm,-,0.05,Snow,Light Snow,0,2013-03-01 21:51:00
4:53 PM,32.0,30.9,96,29.95,0.8,Calm,Calm,-,0.05,Snow,Light Snow,0,2013-03-01 21:53:00
5:17 PM,32.0,30.2,93,29.92,0.8,NNW,4.6,-,0.01,Snow,Light Snow,340,2013-03-01 22:17:00
5:26 PM,32.0,30.2,93,29.93,0.8,Variable,3.5,-,0.02,Snow,Light Snow,0,2013-03-01 22:26:00
5:50 PM,32.0,30.2,93,29.93,0.2,NW,3.5,-,0.02,Fog-Snow,Light Snow,320,2013-03-01 22:50:00
5:53 PM,32.0,30.9,96,29.96,0.2,NW,3.5,-,0.02,Fog-Snow,Light Snow,310,2013-03-01 22:53:00
6:02 PM,32.0,30.2,93,29.94,0.2,Calm,Calm,-,0.00,Fog-Snow,Light Snow,0,2013-03-01 23:02:00
6:36 PM,32.0,30.2,93,29.95,1.0,WNW,3.5,-,0.01,Snow,Light Snow,300,2013-03-01 23:36:00
6:53 PM,32.0,30.9,96,29.98,1.0,NW,4.6,-,0.02,Snow,Light Snow,310,2013-03-01 23:53:00
7:21 PM,32.0,30.2,93,29.95,0.5,NW,4.6,-,0.01,Fog-Snow,Light Snow,310,2013-03-02 00:21:00
7:29 PM,32.0,30.2,93,29.95,1.0,NW,3.5,-,0.02,Snow,Light Snow,310,2013-03-02 00:29:00
7:46 PM,32.0,30.2,93,29.95,1.0,NW,4.6,-,0.02,Snow,Light Snow,310,2013-03-02 00:46:00
7:53 PM,32.0,30.9,96,29.98,1.0,NW,3.5,-,0.02,Snow,Light Snow,320,2013-03-02 00:53:00
8:15 PM,32.0,30.2,93,29.95,1.2,NW,3.5,-,0.01,Snow,Light Snow,310,2013-03-02 01:15:00
8:25 PM,32.0,30.2,93,29.95,1.8,NW,3.5,-,0.01,Snow,Light Snow,310,2013-03-02 01:25:00
8:32 PM,32.0,30.2,93,29.95,2.0,NW,3.5,-,0.01,Snow,Light Snow,310,2013-03-02 01:32:00
8:36 PM,30.2,30.2,100,29.95,1.8,NW,3.5,-,0.01,Snow,Light Snow,320,2013-03-02 01:36:00
8:53 PM,30.2,30.2,100,29.95,1.0,Calm,Calm,-,N/A,Snow,Light Snow,0,2013-03-02 01:53:00
9:00 PM,30.2,30.2,100,29.95,0.8,Calm,Calm,-,0.00,Snow,Light Snow,0,2013-03-02 02:00:00
9:10 PM,32.0,30.2,93,29.96,1.8,Calm,Calm,-,0.00,Snow,Light Snow,0,2013-03-02 02:10:00
9:31 PM,32.0,30.2,93,29.96,1.5,Calm,Calm,-,0.01,Snow,Light Snow,0,2013-03-02 02:31:00
9:38 PM,32.0,30.2,93,29.96,0.8,Calm,Calm,-,0.01,Snow,Light Snow,0,2013-03-02 02:38:00
9:53 PM,30.9,30.9,100,29.99,0.5,NW,3.5,-,0.03,Fog-Snow,Snow,310,2013-03-02 02:53:00
10:23 PM,30.2,30.2,100,29.96,1.5,Calm,Calm,-,0.02,Snow,Light Snow,0,2013-03-02 03:23:00
10:30 PM,30.2,30.2,100,29.96,1.8,Calm,Calm,-,0.03,Snow,Light Snow,0,2013-03-02 03:30:00
10:38 PM,30.2,30.2,100,29.96,1.2,Calm,Calm,-,0.03,Snow,Light Snow,0,2013-03-02 03:38:00
10:53 PM,30.9,28.9,92,29.99,1.5,Calm,Calm,-,0.04,Snow,Light Snow,0,2013-03-02 03:53:00
10:57 PM,30.2,28.4,93,29.96,1.8,Calm,Calm,-,0.00,Snow,Light Snow,0,2013-03-02 03:57:00
11:05 PM,30.2,30.2,100,29.96,1.8,Calm,Calm,-,0.00,Snow,Light Snow,0,2013-03-02 04:05:00
11:11 PM,30.2,30.2,100,29.96,2.0,Calm,Calm,-,0.00,Snow,Light Snow,0,2013-03-02 04:11:00
11:19 PM,30.2,30.2,100,29.96,1.5,Calm,Calm,-,0.00,Snow,Light Snow,0,2013-03-02 04:19:00
11:29 PM,30.2,30.2,100,29.95,1.2,NE,3.5,-,0.01,Snow,Light Snow,40,2013-03-02 04:29:00
11:34 PM,30.2,30.2,100,29.95,1.2,Calm,Calm,-,0.01,Snow,Light Snow,0,2013-03-02 04:34:00
11:45 PM,30.2,30.2,100,29.95,2.0,Calm,Calm,-,0.01,Snow,Light Snow,0,2013-03-02 04:45:00
11:53 PM,30.9,28.9,92,29.98,2.5,NE,3.5,-,0.01,Snow,Light Snow,40,2013-03-02 04:53:00